START_TIME,STEP,MOV.,M34,t_acc.,L5,t_acc.,L18,t_acc.,L14,t_acc.
1981-08-27 12:00:25.500 ,5,0,0.,12.0,0.,12.0,0.,12.0,0.,12.0
1981-08-27 12:00:37.500 ,5,0,0.,12.0,0.,12.0,0.,12.0,0.,12.0
1981-08-27 12:00:49.490 ,4,1,0.,12.0,0.,12.0,0.,12.0,0.,12.0
1981-08-27 12:01:01.500 ,4,1,0.,12.0,0.,12.0,0.,12.0,0.,12.0
1981-08-27 12:01:13.500 ,4,0,0.,12.0,0.,12.0,0.,12.0,0.,12.0
1981-08-27 12:01:25.500 ,4,0,0.,12.0,0.,12.0,0.,12.0,0.,12.0
1981-08-27 12:01:37.500 ,3,1,0.,12.0,0.,12.0,0.,12.0,0.,12.0
1981-08-27 12:01:49.500 ,3,1,0.,12.0,0.,12.0,0.,12.0,0.,12.0
1981-08-27 12:02:01.500 ,3,0,0.,12.0,0.,12.0,0.,12.0,0.,12.0
1981-08-27 12:02:13.490 ,3,0,0.,12.0,0.,12.0,0.,12.0,0.,12.0
1981-08-27 12:02:25.490 ,2,1,0.,12.0,0.,12.0,0.,12.0,0.,12.0
1981-08-27 12:02:37.500 ,2,1,0.,12.0,0.,12.0,0.,12.0,0.,12.0
1981-08-27 12:02:49.490 ,2,0,0.,12.0,0.,12.0,0.,12.0,0.,12.0
1981-08-27 12:03:01.500 ,2,0,0.,12.0,0.,12.0,0.,12.0,0.,12.0
1981-08-27 12:03:13.490 ,1,1,0.,12.0,0.,12.0,0.,12.0,0.,12.0
1981-08-27 12:03:25.500 ,1,1,0.,12.0,0.,12.0,0.,12.0,0.,12.0
1981-08-27 12:03:37.490 ,1,0,0.,12.0,0.,12.0,0.,12.0,0.,12.0
1981-08-27 12:03:49.500 ,1,0,0.,12.0,0.,12.0,0.,12.0,0.,12.0
1981-08-27 12:04:01.490 ,0,1,0.,12.0,0.,12.0,0.,12.0,0.,12.0
1981-08-27 12:04:13.490 ,0,1,0.,12.0,0.,12.0,0.,12.0,0.,12.0
1981-08-27 12:04:25.500 ,0,0,0.,12.0,0.,12.0,0.,12.0,0.,12.0
1981-08-27 12:04:37.500 ,0,0,0.,12.0,0.,12.0,0.,12.0,0.,12.0
1981-08-27 12:04:49.500 ,0,1,0.,12.0,0.,12.0,0.,12.0,0.,12.0
1981-08-27 12:05:01.500 ,0,1,0.,12.0,0.,12.0,0.,12.0,0.,12.0
1981-08-27 12:05:13.500 ,0,0,0.,12.0,0.,12.0,0.,12.0,0.,12.0
1981-08-27 12:05:25.500 ,0,0,0.,12.0,0.,12.0,0.,12.0,0.,12.0
1981-08-27 12:05:37.500 ,1,1,0.,12.0,0.,12.0,0.,12.0,0.,12.0
1981-08-27 12:05:49.500 ,1,1,0.,12.0,0.,12.0,0.,12.0,0.,12.0
1981-08-27 12:06:01.500 ,1,0,0.,12.0,0.,12.0,0.,12.0,0.,12.0
1981-08-27 12:06:13.500 ,1,0,0.,12.0,0.,12.0,0.,12.0,0.,12.0
1981-08-27 12:06:25.490 ,2,1,0.,12.0,0.,12.0,0.,12.0,0.,12.0
1981-08-27 12:06:37.490 ,2,1,0.,12.0,0.,12.0,0.,12.0,0.,12.0
1981-08-27 12:06:49.490 ,2,0,0.,12.0,0.,12.0,0.,12.0,0.,12.0
1981-08-27 12:07:01.490 ,2,0,0.,12.0,0.,12.0,0.,12.0,0.,12.0
1981-08-27 12:07:13.490 ,3,1,0.,12.0,0.,12.0,0.,12.0,0.,12.0
1981-08-27 12:07:25.490 ,3,1,0.,12.0,0.,12.0,0.,12.0,0.,12.0
1981-08-27 12:07:37.490 ,3,0,0.,12.0,0.,12.0,0.,12.0,0.,12.0
1981-08-27 12:07:49.490 ,3,0,0.,12.0,0.,12.0,0.,12.0,0.,12.0
1981-08-27 12:08:01.490 ,4,1,0.,12.0,0.,12.0,0.,12.0,0.,12.0
1981-08-27 12:08:13.490 ,4,1,0.,12.0,0.,12.0,0.,12.0,0.,12.0
1981-08-27 12:08:25.490 ,4,0,0.,12.0,0.,12.0,0.,12.0,0.,12.0
1981-08-27 12:08:37.490 ,4,0,0.,12.0,0.,12.0,0.,12.0,0.,12.0
1981-08-27 12:08:49.490 ,5,1,0.,12.0,0.,12.0,0.,12.0,0.,12.0
1981-08-27 12:09:01.490 ,5,1,0.,12.0,0.,12.0,0.,12.0,0.,12.0
1981-08-27 12:09:13.490 ,5,0,0.,12.0,0.,12.0,0.,12.0,0.,12.0
1981-08-27 12:09:25.490 ,5,0,0.,12.0,0.,12.0,0.,12.0,0.,12.0
1981-08-27 12:09:37.490 ,6,1,0.,12.0,0.,12.0,0.,12.0,0.,12.0
1981-08-27 12:09:49.490 ,6,1,0.,12.0,0.,12.0,0.,12.0,0.,12.0
1981-08-27 12:10:01.490 ,6,0,0.,12.0,0.,12.0,0.,12.0,0.,12.0
1981-08-27 12:10:13.490 ,6,0,0.,12.0,0.,12.0,0.,12.0,0.,12.0
1981-08-27 12:11:13.490 ,0,0,0.,12.0,0.,12.0,0.,12.0,0.,12.0
1981-08-27 12:11:25.490 ,0,0,0.,12.0,0.,12.0,0.,12.0,0.,12.0
1981-08-27 12:11:37.490 ,6,1,0.,12.0,0.,12.0,0.,12.0,0.,12.0
1981-08-27 12:11:49.490 ,6,1,0.,12.0,0.,12.0,0.,12.0,0.,12.0
1981-08-27 12:12:01.490 ,5,1,0.,12.0,0.,12.0,0.,12.0,0.,12.0
1981-08-27 12:12:13.490 ,5,1,0.,12.0,0.,12.0,0.,12.0,0.,12.0
1981-08-27 12:12:25.490 ,4,1,0.,12.0,0.,12.0,0.,12.0,0.,12.0
1981-08-27 12:12:37.490 ,4,1,0.,12.0,0.,12.0,0.,12.0,0.,12.0
1981-08-27 12:12:49.490 ,3,1,0.,12.0,0.,12.0,0.,12.0,0.,12.0
1981-08-27 12:13:01.490 ,3,1,0.,12.0,0.,12.0,0.,12.0,0.,12.0
1981-08-27 12:13:13.490 ,2,1,0.,12.0,0.,12.0,0.,12.0,0.,12.0
1981-08-27 12:13:25.490 ,2,1,0.,12.0,0.,12.0,0.,12.0,0.,12.0
1981-08-27 12:13:37.490 ,1,1,0.,12.0,0.,12.0,0.,12.0,0.,12.0
1981-08-27 12:13:49.490 ,1,1,0.,12.0,0.,12.0,0.,12.0,0.,12.0
1981-08-27 12:14:01.490 ,0,1,0.,12.0,0.,12.0,0.,12.0,0.,12.0
1981-08-27 12:14:13.490 ,0,1,0.,12.0,0.,12.0,0.,12.0,0.,12.0
1981-08-27 12:14:25.490 ,0,1,0.,12.0,0.,12.0,0.,12.0,0.,12.0
1981-08-27 12:14:37.490 ,0,1,0.,12.0,0.,12.0,0.,12.0,0.,12.0
1981-08-27 12:14:49.490 ,1,1,0.,12.0,0.,12.0,0.,12.0,0.,12.0
1981-08-27 12:15:01.490 ,1,1,0.,12.0,0.,12.0,0.,12.0,0.,12.0
1981-08-27 12:15:13.490 ,2,1,0.,12.0,0.,12.0,0.,12.0,0.,12.0
1981-08-27 12:15:25.490 ,2,1,0.,12.0,0.,12.0,0.,12.0,0.,12.0
1981-08-27 12:15:37.490 ,3,1,0.,12.0,0.,12.0,0.,12.0,0.,12.0
1981-08-27 12:15:49.490 ,3,1,0.,12.0,0.,12.0,0.,12.0,0.,12.0
1981-08-27 12:16:01.490 ,4,1,0.,12.0,0.,12.0,0.,12.0,0.,12.0
1981-08-27 12:16:13.490 ,4,1,0.,12.0,0.,12.0,0.,12.0,0.,12.0
1981-08-27 12:16:25.490 ,5,1,0.,12.0,0.,12.0,0.,12.0,0.,12.0
1981-08-27 12:16:37.490 ,5,1,0.,12.0,0.,12.0,0.,12.0,0.,12.0
1981-08-27 12:16:49.490 ,6,1,0.,12.0,0.,12.0,0.,12.0,0.,12.0
1981-08-27 12:17:01.490 ,6,1,0.,12.0,0.,12.0,0.,12.0,0.,12.0
1981-08-27 12:17:13.490 ,7,1,0.,12.0,0.,12.0,0.,12.0,0.,12.0
1981-08-27 12:17:25.490 ,7,1,0.,12.0,0.,12.0,0.,12.0,0.,12.0
1981-08-27 12:17:37.490 ,7,1,0.,12.0,0.,12.0,0.,12.0,0.,12.0
1981-08-27 12:17:49.490 ,7,1,0.,12.0,0.,12.0,0.,12.0,0.,12.0
1981-08-27 12:18:01.490 ,7,0,0.,12.0,0.,12.0,0.,12.0,0.,12.0
1981-08-27 12:18:13.490 ,7,0,0.,12.0,0.,12.0,0.,12.0,0.,12.0
1981-08-27 12:18:25.490 ,6,1,0.,12.0,0.,12.0,0.,12.0,0.,12.0
1981-08-27 12:18:37.490 ,6,1,0.,12.0,0.,12.0,0.,12.0,0.,12.0
1981-08-27 12:18:49.490 ,6,0,0.,12.0,0.,12.0,0.,12.0,0.,12.0
1981-08-27 12:19:01.490 ,6,0,0.,12.0,0.,12.0,0.,12.0,0.,12.0
1981-08-27 12:19:13.490 ,5,1,0.,12.0,0.,12.0,0.,12.0,0.,12.0
1981-08-27 12:19:25.490 ,5,1,0.,12.0,0.,12.0,0.,12.0,0.,12.0
1981-08-27 12:19:37.490 ,5,0,0.,12.0,0.,12.0,0.,12.0,0.,12.0
1981-08-27 12:19:49.490 ,5,0,0.,12.0,0.,12.0,0.,12.0,0.,12.0
1981-08-27 12:20:01.490 ,4,1,0.,12.0,0.,12.0,0.,12.0,0.,12.0
1981-08-27 12:20:13.490 ,4,1,0.,12.0,0.,12.0,0.,12.0,0.,12.0
1981-08-27 12:20:25.490 ,4,0,0.,12.0,0.,12.0,0.,12.0,0.,12.0
1981-08-27 12:20:37.490 ,4,0,0.,12.0,0.,12.0,0.,12.0,0.,12.0
1981-08-27 12:20:49.490 ,3,1,0.,12.0,0.,12.0,0.,12.0,0.,12.0
1981-08-27 12:21:01.490 ,3,1,0.,12.0,0.,12.0,0.,12.0,0.,12.0
1981-08-27 12:21:13.490 ,3,0,0.,12.0,0.,12.0,0.,12.0,0.,12.0
1981-08-27 12:21:25.490 ,3,0,0.,12.0,0.,12.0,0.,12.0,0.,12.0
1981-08-27 12:21:37.490 ,2,1,0.,12.0,0.,12.0,0.,12.0,0.,12.0
1981-08-27 12:21:49.490 ,2,1,0.,12.0,0.,12.0,0.,12.0,0.,12.0
1981-08-27 12:22:01.490 ,2,0,0.,12.0,0.,12.0,0.,12.0,0.,12.0
1981-08-27 12:22:13.490 ,2,0,0.,12.0,0.,12.0,0.,12.0,0.,12.0
1981-08-27 12:22:25.490 ,1,1,0.,12.0,0.,12.0,0.,12.0,0.,12.0
1981-08-27 12:22:37.490 ,1,1,0.,12.0,0.,12.0,0.,12.0,0.,12.0
1981-08-27 12:22:49.490 ,1,0,0.,12.0,0.,12.0,0.,12.0,0.,12.0
1981-08-27 12:23:01.490 ,1,0,0.,12.0,0.,12.0,0.,12.0,0.,12.0
1981-08-27 12:23:13.490 ,0,1,0.,12.0,0.,12.0,0.,12.0,0.,12.0
1981-08-27 12:23:25.490 ,0,1,0.,12.0,0.,12.0,0.,12.0,0.,12.0
1981-08-27 12:23:37.490 ,0,0,0.,12.0,0.,12.0,0.,12.0,0.,12.0
1981-08-27 12:23:49.490 ,0,0,0.,12.0,0.,12.0,0.,12.0,0.,12.0
1981-08-27 12:24:01.490 ,0,1,0.,12.0,0.,12.0,0.,12.0,0.,12.0
1981-08-27 12:24:13.490 ,0,1,0.,12.0,0.,12.0,0.,12.0,0.,12.0
1981-08-27 12:24:25.490 ,0,0,0.,12.0,0.,12.0,0.,12.0,0.,12.0
1981-08-27 12:24:37.490 ,0,0,0.,12.0,0.,12.0,0.,12.0,0.,12.0
1981-08-27 12:24:49.490 ,1,1,0.,12.0,0.,12.0,0.,12.0,0.,12.0
1981-08-27 12:25:01.490 ,1,1,0.,12.0,0.,12.0,0.,12.0,0.,12.0
1981-08-27 12:25:13.490 ,1,0,0.,12.0,0.,12.0,0.,12.0,0.,12.0
1981-08-27 12:25:25.490 ,1,0,0.,12.0,0.,12.0,0.,12.0,0.,12.0
1981-08-27 12:25:37.490 ,2,1,0.,12.0,0.,12.0,0.,12.0,0.,12.0
1981-08-27 12:25:49.490 ,2,1,0.,12.0,0.,12.0,0.,12.0,0.,12.0
1981-08-27 12:26:01.490 ,2,0,0.,12.0,0.,12.0,0.,12.0,0.,12.0
1981-08-27 12:26:13.490 ,2,0,0.,12.0,0.,12.0,0.,12.0,0.,12.0
1981-08-27 12:26:25.490 ,3,1,0.,12.0,0.,12.0,0.,12.0,0.,12.0
1981-08-27 12:26:37.490 ,3,1,0.,12.0,0.,12.0,0.,12.0,0.,12.0
1981-08-27 12:26:49.490 ,3,0,0.,12.0,0.,12.0,0.,12.0,0.,12.0
1981-08-27 12:27:01.490 ,3,0,0.,12.0,0.,12.0,0.,12.0,0.,12.0
1981-08-27 12:27:13.490 ,4,1,0.,12.0,0.,12.0,0.,12.0,0.,12.0
1981-08-27 12:27:25.490 ,4,1,0.,12.0,0.,12.0,0.,12.0,0.,12.0
1981-08-27 12:27:37.490 ,4,0,0.,12.0,0.,12.0,0.,12.0,0.,12.0
1981-08-27 12:27:49.490 ,4,0,0.,12.0,0.,12.0,0.,12.0,0.,12.0
1981-08-27 12:28:01.490 ,5,1,0.,12.0,0.,12.0,0.,12.0,0.,12.0
1981-08-27 12:28:13.490 ,5,1,0.,12.0,0.,12.0,0.,12.0,1.,12.0
1981-08-27 12:28:25.490 ,5,0,0.,12.0,0.,12.0,0.,12.0,0.,12.0
1981-08-27 12:28:37.490 ,5,0,0.,12.0,0.,12.0,0.,12.0,0.,12.0
1981-08-27 12:28:49.490 ,6,1,0.,12.0,0.,12.0,0.,12.0,0.,12.0
1981-08-27 12:29:01.490 ,6,1,0.,12.0,0.,12.0,0.,12.0,0.,12.0
1981-08-27 12:29:13.490 ,6,0,0.,12.0,0.,12.0,0.,12.0,0.,12.0
1981-08-27 12:29:25.490 ,6,0,0.,12.0,0.,12.0,0.,12.0,0.,12.0
1981-08-27 12:29:37.490 ,7,1,0.,12.0,0.,12.0,0.,12.0,0.,12.0
1981-08-27 12:29:49.490 ,7,1,0.,12.0,0.,12.0,0.,12.0,0.,12.0
1981-08-27 12:30:01.490 ,7,0,0.,12.0,0.,12.0,0.,12.0,0.,12.0
1981-08-27 12:30:13.490 ,7,0,0.,12.0,0.,12.0,0.,12.0,0.,12.0
1981-08-27 12:30:25.490 ,7,1,0.,12.0,0.,12.0,0.,12.0,0.,12.0
1981-08-27 12:30:37.490 ,7,1,0.,12.0,0.,12.0,0.,12.0,0.,12.0
1981-08-27 12:30:49.490 ,6,1,0.,12.0,0.,12.0,0.,12.0,0.,12.0
1981-08-27 12:31:01.490 ,6,1,0.,12.0,0.,12.0,0.,12.0,0.,12.0
1981-08-27 12:31:13.490 ,5,1,0.,12.0,0.,12.0,0.,12.0,0.,12.0
1981-08-27 12:31:25.490 ,5,1,0.,12.0,0.,12.0,0.,12.0,0.,12.0
1981-08-27 12:31:37.490 ,4,1,0.,12.0,0.,12.0,0.,12.0,0.,12.0
1981-08-27 12:31:49.490 ,4,1,0.,12.0,0.,12.0,0.,12.0,0.,12.0
1981-08-27 12:32:01.490 ,3,1,0.,12.0,0.,12.0,0.,12.0,0.,12.0
1981-08-27 12:32:13.490 ,3,1,0.,12.0,0.,12.0,0.,12.0,0.,12.0
1981-08-27 12:32:25.490 ,2,1,0.,12.0,0.,12.0,0.,12.0,0.,12.0
1981-08-27 12:32:37.490 ,2,1,0.,12.0,0.,12.0,0.,12.0,0.,12.0
1981-08-27 12:32:49.490 ,1,1,0.,12.0,0.,12.0,0.,12.0,0.,12.0
1981-08-27 12:33:01.490 ,1,1,0.,12.0,0.,12.0,0.,12.0,0.,12.0
1981-08-27 12:33:13.490 ,0,1,0.,12.0,0.,12.0,0.,12.0,0.,12.0
1981-08-27 12:33:25.490 ,0,1,0.,12.0,0.,12.0,0.,12.0,0.,12.0
1981-08-27 12:33:37.490 ,0,1,0.,12.0,0.,12.0,0.,12.0,0.,12.0
1981-08-27 12:33:49.490 ,0,1,0.,12.0,0.,12.0,0.,12.0,0.,12.0
1981-08-27 12:34:01.490 ,1,1,0.,12.0,0.,12.0,0.,12.0,0.,12.0
1981-08-27 12:34:13.490 ,1,1,0.,12.0,0.,12.0,0.,12.0,0.,12.0
1981-08-27 12:34:25.490 ,2,1,0.,12.0,0.,12.0,0.,12.0,0.,12.0
1981-08-27 12:34:37.490 ,2,1,0.,12.0,0.,12.0,0.,12.0,0.,12.0
1981-08-27 12:34:49.490 ,3,1,0.,12.0,0.,12.0,0.,12.0,0.,12.0
1981-08-27 12:35:01.490 ,3,1,0.,12.0,0.,12.0,0.,12.0,0.,12.0
1981-08-27 12:36:01.490 ,0,0,0.,12.0,0.,12.0,0.,12.0,0.,12.0
1981-08-27 12:36:13.490 ,0,0,0.,12.0,0.,12.0,0.,12.0,0.,12.0
1981-08-27 12:36:25.490 ,7,1,0.,12.0,0.,12.0,0.,12.0,0.,12.0
1981-08-27 12:36:37.490 ,7,1,0.,12.0,0.,12.0,0.,12.0,0.,12.0
1981-08-27 12:36:49.490 ,7,1,0.,12.0,0.,12.0,0.,12.0,0.,12.0
1981-08-27 12:37:01.490 ,7,1,0.,12.0,0.,12.0,0.,12.0,0.,12.0
1981-08-27 12:37:13.490 ,7,0,0.,12.0,0.,12.0,0.,12.0,0.,12.0
1981-08-27 12:37:25.490 ,7,0,0.,12.0,0.,12.0,0.,12.0,0.,12.0
1981-08-27 12:37:37.490 ,6,1,0.,12.0,0.,12.0,0.,12.0,0.,12.0
1981-08-27 12:37:49.490 ,6,1,0.,12.0,0.,12.0,0.,12.0,0.,12.0
1981-08-27 12:38:01.490 ,6,0,0.,12.0,0.,12.0,0.,12.0,0.,12.0
1981-08-27 12:38:13.490 ,6,0,0.,12.0,0.,12.0,0.,12.0,0.,12.0
1981-08-27 12:38:25.490 ,5,1,0.,12.0,0.,12.0,0.,12.0,0.,12.0
1981-08-27 12:38:37.490 ,5,1,0.,12.0,0.,12.0,0.,12.0,0.,12.0
1981-08-27 12:38:49.490 ,5,0,0.,12.0,0.,12.0,0.,12.0,0.,12.0
1981-08-27 12:39:01.490 ,5,0,0.,12.0,0.,12.0,0.,12.0,0.,12.0
1981-08-27 12:39:13.490 ,4,1,0.,12.0,0.,12.0,0.,12.0,0.,12.0
1981-08-27 12:39:25.490 ,4,1,0.,12.0,0.,12.0,0.,12.0,0.,12.0
1981-08-27 12:39:37.490 ,4,0,0.,12.0,0.,12.0,0.,12.0,0.,12.0
1981-08-27 12:39:49.490 ,4,0,0.,12.0,0.,12.0,0.,12.0,0.,12.0
1981-08-27 12:40:01.490 ,3,1,0.,12.0,0.,12.0,0.,12.0,0.,12.0
1981-08-27 12:40:13.490 ,3,1,0.,12.0,0.,12.0,0.,12.0,0.,12.0
1981-08-27 12:40:25.490 ,3,0,0.,12.0,0.,12.0,0.,12.0,0.,12.0
1981-08-27 12:40:37.490 ,3,0,0.,12.0,0.,12.0,0.,12.0,0.,12.0
1981-08-27 12:40:49.490 ,2,1,0.,12.0,0.,12.0,0.,12.0,0.,12.0
1981-08-27 12:41:01.490 ,2,1,0.,12.0,0.,12.0,0.,12.0,0.,12.0
1981-08-27 12:41:13.490 ,2,0,0.,12.0,0.,12.0,0.,12.0,0.,12.0
1981-08-27 12:41:25.490 ,2,0,0.,12.0,0.,12.0,0.,12.0,0.,12.0
1981-08-27 12:41:37.490 ,1,1,0.,12.0,0.,12.0,0.,12.0,0.,12.0
1981-08-27 12:41:49.490 ,1,1,0.,12.0,0.,12.0,0.,12.0,0.,12.0
1981-08-27 12:42:01.490 ,1,0,0.,12.0,0.,12.0,0.,12.0,0.,12.0
1981-08-27 12:42:13.490 ,1,0,0.,12.0,0.,12.0,0.,12.0,0.,12.0
1981-08-27 12:42:25.490 ,0,1,0.,12.0,0.,12.0,0.,12.0,0.,12.0
1981-08-27 12:42:37.490 ,0,1,0.,12.0,0.,12.0,0.,12.0,0.,12.0
1981-08-27 12:42:49.490 ,0,0,0.,12.0,0.,12.0,0.,12.0,0.,12.0
1981-08-27 12:43:01.490 ,0,0,0.,12.0,0.,12.0,0.,12.0,0.,12.0
1981-08-27 12:43:13.490 ,0,1,0.,12.0,0.,12.0,0.,12.0,0.,12.0
1981-08-27 12:43:25.490 ,0,1,0.,12.0,0.,12.0,0.,12.0,0.,12.0
1981-08-27 12:43:37.490 ,0,0,0.,12.0,0.,12.0,0.,12.0,0.,12.0
1981-08-27 12:43:49.490 ,0,0,0.,12.0,0.,12.0,0.,12.0,0.,12.0
1981-08-27 12:44:01.490 ,1,1,0.,12.0,0.,12.0,0.,12.0,0.,12.0
1981-08-27 12:44:13.490 ,1,1,0.,12.0,0.,12.0,0.,12.0,0.,12.0
1981-08-27 12:44:25.490 ,1,0,0.,12.0,0.,12.0,0.,12.0,0.,12.0
1981-08-27 12:44:37.490 ,1,0,0.,12.0,0.,12.0,0.,12.0,0.,12.0
1981-08-27 12:44:49.490 ,2,1,0.,12.0,0.,12.0,0.,12.0,0.,12.0
1981-08-27 12:45:01.490 ,2,1,0.,12.0,0.,12.0,0.,12.0,0.,12.0
1981-08-27 12:45:13.490 ,2,0,0.,12.0,0.,12.0,0.,12.0,0.,12.0
1981-08-27 12:45:25.490 ,2,0,0.,12.0,0.,12.0,0.,12.0,0.,12.0
1981-08-27 12:45:37.490 ,3,1,0.,12.0,0.,12.0,0.,12.0,0.,12.0
1981-08-27 12:45:49.490 ,3,1,0.,12.0,0.,12.0,0.,12.0,0.,12.0
1981-08-27 12:46:01.490 ,3,0,0.,12.0,0.,12.0,0.,12.0,0.,12.0
1981-08-27 12:46:13.490 ,3,0,0.,12.0,0.,12.0,0.,12.0,0.,12.0
1981-08-27 12:46:25.490 ,4,1,0.,12.0,0.,12.0,0.,12.0,0.,12.0
1981-08-27 12:46:37.490 ,4,1,0.,12.0,0.,12.0,0.,12.0,0.,12.0
1981-08-27 12:46:49.490 ,4,0,0.,12.0,0.,12.0,0.,12.0,0.,12.0
1981-08-27 12:47:01.490 ,4,0,0.,12.0,0.,12.0,0.,12.0,0.,12.0
1981-08-27 12:47:13.490 ,5,1,0.,12.0,0.,12.0,0.,12.0,0.,12.0
1981-08-27 12:47:25.490 ,5,1,0.,12.0,0.,12.0,0.,12.0,0.,12.0
1981-08-27 12:47:37.490 ,5,0,0.,12.0,0.,12.0,0.,12.0,0.,12.0
1981-08-27 12:47:49.490 ,5,0,0.,12.0,0.,12.0,0.,12.0,0.,12.0
1981-08-27 12:48:01.490 ,6,1,0.,12.0,0.,12.0,0.,12.0,0.,12.0
1981-08-27 12:48:13.490 ,6,1,0.,12.0,0.,12.0,0.,12.0,0.,12.0
1981-08-27 12:48:25.490 ,6,0,0.,12.0,0.,12.0,0.,12.0,0.,12.0
1981-08-27 12:48:37.490 ,6,0,0.,12.0,0.,12.0,0.,12.0,0.,12.0
1981-08-27 12:48:49.490 ,7,1,0.,12.0,0.,12.0,0.,12.0,0.,12.0
1981-08-27 12:49:01.490 ,7,1,0.,12.0,0.,12.0,0.,12.0,0.,12.0
1981-08-27 12:49:13.490 ,7,0,0.,12.0,0.,12.0,0.,12.0,0.,12.0
1981-08-27 12:49:25.490 ,7,0,0.,12.0,0.,12.0,0.,12.0,0.,12.0
1981-08-27 12:49:37.490 ,7,1,0.,12.0,0.,12.0,0.,12.0,0.,12.0
1981-08-27 12:49:49.490 ,7,1,0.,12.0,0.,12.0,0.,12.0,0.,12.0
1981-08-27 12:50:01.490 ,6,1,0.,12.0,0.,12.0,0.,12.0,0.,12.0
1981-08-27 12:50:13.490 ,6,1,0.,12.0,0.,12.0,0.,12.0,0.,12.0
1981-08-27 12:50:25.490 ,5,1,0.,12.0,0.,12.0,0.,12.0,0.,12.0
1981-08-27 12:50:37.490 ,5,1,0.,12.0,0.,12.0,0.,12.0,0.,12.0
1981-08-27 12:50:49.490 ,4,1,0.,12.0,0.,12.0,0.,12.0,0.,12.0
1981-08-27 12:51:01.490 ,4,1,0.,12.0,0.,12.0,0.,12.0,0.,12.0
1981-08-27 12:51:13.490 ,3,1,0.,12.0,0.,12.0,0.,12.0,0.,12.0
1981-08-27 12:51:25.490 ,3,1,0.,12.0,0.,12.0,0.,12.0,0.,12.0
1981-08-27 12:51:37.490 ,2,1,0.,12.0,0.,12.0,0.,12.0,0.,12.0
1981-08-27 12:51:49.490 ,2,1,0.,12.0,0.,12.0,0.,12.0,0.,12.0
1981-08-27 12:52:01.490 ,1,1,0.,12.0,0.,12.0,0.,12.0,0.,12.0
1981-08-27 12:52:13.490 ,1,1,0.,12.0,0.,12.0,0.,12.0,0.,12.0
1981-08-27 12:52:25.490 ,0,1,0.,12.0,0.,12.0,0.,12.0,0.,12.0
1981-08-27 12:52:37.490 ,0,1,0.,12.0,0.,12.0,0.,12.0,0.,12.0
1981-08-27 12:52:49.490 ,0,1,0.,12.0,0.,12.0,0.,12.0,0.,12.0
1981-08-27 12:53:01.490 ,0,1,0.,12.0,0.,12.0,0.,12.0,0.,12.0
1981-08-27 12:53:13.490 ,1,1,0.,12.0,0.,12.0,0.,12.0,0.,12.0
1981-08-27 12:53:25.490 ,1,1,0.,12.0,0.,12.0,0.,12.0,0.,12.0
1981-08-27 12:53:37.490 ,2,1,0.,12.0,0.,12.0,0.,12.0,0.,12.0
1981-08-27 12:53:49.490 ,2,1,0.,12.0,0.,12.0,0.,12.0,0.,12.0
1981-08-27 12:54:01.490 ,3,1,0.,12.0,0.,12.0,0.,12.0,1.,12.0
1981-08-27 12:54:13.490 ,3,1,0.,12.0,0.,12.0,0.,12.0,0.,12.0
1981-08-27 12:54:25.490 ,4,1,0.,12.0,0.,12.0,0.,12.0,0.,12.0
1981-08-27 12:54:37.490 ,4,1,0.,12.0,0.,12.0,0.,12.0,0.,12.0
1981-08-27 12:54:49.490 ,5,1,0.,12.0,0.,12.0,0.,12.0,0.,12.0
1981-08-27 12:55:01.490 ,5,1,0.,12.0,0.,12.0,0.,12.0,0.,12.0
1981-08-27 12:55:13.490 ,6,1,0.,12.0,0.,12.0,0.,12.0,0.,12.0
1981-08-27 12:55:25.490 ,6,1,0.,12.0,0.,12.0,0.,12.0,0.,12.0
1981-08-27 12:55:37.490 ,7,1,0.,12.0,0.,12.0,0.,12.0,0.,12.0
1981-08-27 12:55:49.490 ,7,1,0.,12.0,0.,12.0,0.,12.0,0.,12.0
1981-08-27 12:56:01.490 ,7,1,0.,12.0,0.,12.0,0.,12.0,0.,12.0
1981-08-27 12:56:13.490 ,7,1,0.,12.0,0.,12.0,0.,12.0,0.,12.0
1981-08-27 12:56:25.490 ,7,0,0.,12.0,0.,12.0,0.,12.0,0.,12.0
1981-08-27 12:56:37.490 ,7,0,0.,12.0,0.,12.0,0.,12.0,0.,12.0
1981-08-27 12:56:49.490 ,6,1,0.,12.0,0.,12.0,0.,12.0,0.,12.0
1981-08-27 12:57:01.490 ,6,1,0.,12.0,0.,12.0,0.,12.0,0.,12.0
1981-08-27 12:57:13.490 ,6,0,0.,12.0,0.,12.0,0.,12.0,0.,12.0
1981-08-27 12:57:25.490 ,6,0,0.,12.0,0.,12.0,0.,12.0,0.,12.0
1981-08-27 12:57:37.490 ,5,1,0.,12.0,0.,12.0,0.,12.0,0.,12.0
1981-08-27 12:57:49.490 ,5,1,0.,12.0,0.,12.0,0.,12.0,0.,12.0
1981-08-27 12:58:01.490 ,5,0,0.,12.0,0.,12.0,0.,12.0,0.,12.0
1981-08-27 12:58:13.490 ,5,0,0.,12.0,0.,12.0,0.,12.0,1.,12.0
1981-08-27 12:58:25.490 ,4,1,0.,12.0,0.,12.0,0.,12.0,0.,12.0
1981-08-27 12:58:37.490 ,4,1,0.,12.0,0.,12.0,0.,12.0,0.,12.0
1981-08-27 12:58:49.490 ,4,0,0.,12.0,0.,12.0,0.,12.0,0.,12.0
1981-08-27 12:59:01.490 ,4,0,0.,12.0,0.,12.0,0.,12.0,0.,12.0
1981-08-27 12:59:13.490 ,3,1,0.,12.0,0.,12.0,0.,12.0,0.,12.0
1981-08-27 12:59:25.490 ,3,1,0.,12.0,0.,12.0,0.,12.0,0.,12.0
1981-08-27 12:59:37.490 ,3,0,0.,12.0,0.,12.0,0.,12.0,0.,12.0
1981-08-27 12:59:49.490 ,3,0,0.,12.0,0.,12.0,0.,12.0,0.,12.0
1981-08-27 13:00:01.490 ,2,1,0.,12.0,0.,12.0,0.,12.0,0.,12.0
1981-08-27 13:00:13.490 ,2,1,0.,12.0,0.,12.0,0.,12.0,0.,12.0
1981-08-27 13:00:25.490 ,2,0,0.,12.0,0.,12.0,0.,12.0,0.,12.0
1981-08-27 13:00:37.490 ,2,0,0.,12.0,0.,12.0,0.,12.0,0.,12.0
1981-08-27 13:00:49.490 ,1,1,0.,12.0,0.,12.0,0.,12.0,0.,12.0
1981-08-27 13:01:01.490 ,1,1,0.,12.0,0.,12.0,0.,12.0,0.,12.0
1981-08-27 13:01:13.490 ,1,0,0.,12.0,0.,12.0,0.,12.0,0.,12.0
1981-08-27 13:01:25.490 ,1,0,0.,12.0,0.,12.0,0.,12.0,0.,12.0
1981-08-27 13:01:37.490 ,0,1,0.,12.0,0.,12.0,0.,12.0,0.,12.0
1981-08-27 13:01:49.490 ,0,1,0.,12.0,0.,12.0,0.,12.0,0.,12.0
1981-08-27 13:02:01.490 ,0,0,0.,12.0,0.,12.0,0.,12.0,0.,12.0
1981-08-27 13:02:13.490 ,0,0,0.,12.0,0.,12.0,0.,12.0,0.,12.0
1981-08-27 13:02:25.490 ,0,1,0.,12.0,0.,12.0,0.,12.0,0.,12.0
1981-08-27 13:02:37.490 ,0,1,0.,12.0,0.,12.0,0.,12.0,0.,12.0
1981-08-27 13:02:49.490 ,0,0,0.,12.0,0.,12.0,0.,12.0,0.,12.0
1981-08-27 13:03:01.490 ,0,0,0.,12.0,0.,12.0,0.,12.0,0.,12.0
1981-08-27 13:03:13.490 ,1,1,0.,12.0,0.,12.0,0.,12.0,0.,12.0
1981-08-27 13:03:25.490 ,1,1,0.,12.0,0.,12.0,0.,12.0,0.,12.0
1981-08-27 13:03:37.490 ,1,0,0.,12.0,0.,12.0,0.,12.0,0.,12.0
1981-08-27 13:03:49.490 ,1,0,0.,12.0,0.,12.0,0.,12.0,0.,12.0
1981-08-27 13:04:01.490 ,2,1,0.,12.0,0.,12.0,0.,12.0,0.,12.0
1981-08-27 13:04:13.490 ,2,1,0.,12.0,0.,12.0,0.,12.0,0.,12.0
1981-08-27 13:04:25.490 ,2,0,0.,12.0,0.,12.0,0.,12.0,0.,12.0
1981-08-27 13:04:37.490 ,2,0,0.,12.0,0.,12.0,0.,12.0,0.,12.0
1981-08-27 13:04:49.490 ,3,1,0.,12.0,0.,12.0,0.,12.0,0.,12.0
1981-08-27 13:05:01.490 ,3,1,0.,12.0,0.,12.0,0.,12.0,0.,12.0
1981-08-27 13:05:13.490 ,3,0,0.,12.0,0.,12.0,0.,12.0,0.,12.0
1981-08-27 13:05:25.490 ,3,0,0.,12.0,0.,12.0,0.,12.0,0.,12.0
1981-08-27 13:05:37.490 ,4,1,0.,12.0,0.,12.0,0.,12.0,0.,12.0
1981-08-27 13:05:49.490 ,4,1,0.,12.0,0.,12.0,0.,12.0,0.,12.0
1981-08-27 13:06:01.490 ,4,0,0.,12.0,0.,12.0,0.,12.0,0.,12.0
1981-08-27 13:06:13.490 ,4,0,0.,12.0,0.,12.0,0.,12.0,0.,12.0
1981-08-27 13:06:25.490 ,5,1,0.,12.0,0.,12.0,0.,12.0,0.,12.0
1981-08-27 13:06:37.490 ,5,1,0.,12.0,0.,12.0,0.,12.0,0.,12.0
1981-08-27 13:06:49.490 ,5,0,0.,12.0,0.,12.0,0.,12.0,0.,12.0
1981-08-27 13:07:01.490 ,5,0,0.,12.0,0.,12.0,0.,12.0,0.,12.0
1981-08-27 13:07:13.490 ,6,1,0.,12.0,0.,12.0,0.,12.0,0.,12.0
1981-08-27 13:07:25.490 ,6,1,0.,12.0,0.,12.0,0.,12.0,0.,12.0
1981-08-27 13:07:37.490 ,6,0,0.,12.0,0.,12.0,0.,12.0,0.,12.0
1981-08-27 13:07:49.490 ,6,0,0.,12.0,0.,12.0,0.,12.0,0.,12.0
1981-08-27 13:08:01.490 ,7,1,0.,12.0,0.,12.0,0.,12.0,0.,12.0
1981-08-27 13:08:13.490 ,7,1,0.,12.0,0.,12.0,0.,12.0,0.,12.0
1981-08-27 13:08:25.490 ,7,0,0.,12.0,0.,12.0,0.,12.0,0.,12.0
1981-08-27 13:08:37.490 ,7,0,0.,12.0,0.,12.0,0.,12.0,0.,12.0
1981-08-27 13:08:49.490 ,7,1,0.,12.0,0.,12.0,0.,12.0,0.,12.0
1981-08-27 13:09:01.490 ,7,1,0.,12.0,0.,12.0,0.,12.0,0.,12.0
1981-08-27 13:09:13.490 ,6,1,0.,12.0,0.,12.0,0.,12.0,0.,12.0
1981-08-27 13:09:25.490 ,6,1,0.,12.0,0.,12.0,0.,12.0,0.,12.0
1981-08-27 13:09:37.490 ,5,1,0.,12.0,0.,12.0,0.,12.0,0.,12.0
1981-08-27 13:09:49.490 ,5,1,0.,12.0,0.,12.0,0.,12.0,0.,12.0
1981-08-27 13:10:01.490 ,4,1,0.,12.0,0.,12.0,0.,12.0,0.,12.0
1981-08-27 13:10:13.490 ,4,1,0.,12.0,0.,12.0,0.,12.0,0.,12.0
1981-08-27 13:10:25.490 ,3,1,0.,12.0,0.,12.0,0.,12.0,0.,12.0
1981-08-27 13:10:37.490 ,3,1,0.,12.0,0.,12.0,0.,12.0,0.,12.0
1981-08-27 13:10:49.490 ,2,1,0.,12.0,0.,12.0,0.,12.0,0.,12.0
1981-08-27 13:11:01.490 ,2,1,0.,12.0,0.,12.0,0.,12.0,0.,12.0
1981-08-27 13:11:13.490 ,1,1,0.,12.0,0.,12.0,0.,12.0,0.,12.0
1981-08-27 13:11:25.490 ,1,1,0.,12.0,0.,12.0,0.,12.0,0.,12.0
1981-08-27 13:11:37.490 ,0,1,0.,12.0,0.,12.0,0.,12.0,0.,12.0
1981-08-27 13:11:49.490 ,0,1,0.,12.0,0.,12.0,0.,12.0,0.,12.0
1981-08-27 13:12:01.490 ,0,1,0.,12.0,0.,12.0,0.,12.0,0.,12.0
1981-08-27 13:12:13.490 ,0,1,0.,12.0,0.,12.0,0.,12.0,0.,12.0
1981-08-27 13:12:25.490 ,1,1,0.,12.0,0.,12.0,0.,12.0,0.,12.0
1981-08-27 13:12:37.490 ,1,1,0.,12.0,0.,12.0,0.,12.0,0.,12.0
1981-08-27 13:12:49.490 ,2,1,0.,12.0,0.,12.0,0.,12.0,0.,12.0
1981-08-27 13:13:01.490 ,2,1,0.,12.0,0.,12.0,0.,12.0,0.,12.0
1981-08-27 13:13:13.490 ,3,1,0.,12.0,0.,12.0,0.,12.0,0.,12.0
1981-08-27 13:13:25.490 ,3,1,0.,12.0,0.,12.0,0.,12.0,0.,12.0
1981-08-27 13:13:37.490 ,4,1,0.,12.0,0.,12.0,0.,12.0,0.,12.0
1981-08-27 13:13:49.490 ,4,1,0.,12.0,0.,12.0,0.,12.0,0.,12.0
1981-08-27 13:14:01.490 ,5,1,0.,12.0,0.,12.0,0.,12.0,0.,12.0
1981-08-27 13:14:13.490 ,5,1,0.,12.0,0.,12.0,0.,12.0,0.,12.0
1981-08-27 13:14:25.490 ,6,1,0.,12.0,0.,12.0,0.,12.0,0.,12.0
1981-08-27 13:14:37.490 ,6,1,0.,12.0,0.,12.0,0.,12.0,0.,12.0
1981-08-27 13:14:49.490 ,7,1,0.,12.0,0.,12.0,0.,12.0,0.,12.0
1981-08-27 13:15:01.490 ,7,1,0.,12.0,0.,12.0,0.,12.0,0.,12.0
1981-08-27 13:15:13.490 ,7,1,0.,12.0,0.,12.0,0.,12.0,0.,12.0
1981-08-27 13:15:25.490 ,7,1,0.,12.0,0.,12.0,0.,12.0,0.,12.0
1981-08-27 13:15:37.490 ,7,0,0.,12.0,0.,12.0,0.,12.0,0.,12.0
1981-08-27 13:15:49.490 ,7,0,0.,12.0,0.,12.0,0.,12.0,0.,12.0
1981-08-27 13:16:01.490 ,6,1,0.,12.0,0.,12.0,0.,12.0,0.,12.0
1981-08-27 13:16:13.490 ,6,1,0.,12.0,0.,12.0,0.,12.0,0.,12.0
1981-08-27 13:16:25.490 ,6,0,0.,12.0,0.,12.0,0.,12.0,0.,12.0
1981-08-27 13:16:37.490 ,6,0,0.,12.0,0.,12.0,0.,12.0,0.,12.0
1981-08-27 13:16:49.490 ,5,1,0.,12.0,0.,12.0,0.,12.0,0.,12.0
1981-08-27 13:17:01.490 ,5,1,0.,12.0,0.,12.0,0.,12.0,0.,12.0
1981-08-27 13:17:13.490 ,0,0,0.,12.0,0.,12.0,0.,12.0,0.,12.0
1981-08-27 13:17:25.490 ,0,0,0.,12.0,0.,12.0,0.,12.0,0.,12.0
1981-08-27 13:17:40.490 ,0,0,,0,,0,,0,,0
1981-08-27 13:17:52.490 ,0,0,0.,12.0,0.,12.0,0.,12.0,0.,12.0
1981-08-27 13:18:01.490 ,0,0,0.,12.0,0.,12.0,0.,12.0,0.,12.0
1981-08-27 13:18:13.490 ,0,0,0.,12.0,0.,12.0,0.,12.0,0.,12.0
1981-08-27 13:18:25.490 ,3,1,0.,12.0,0.,12.0,0.,12.0,0.,12.0
1981-08-27 13:18:37.490 ,3,1,0.,12.0,0.,12.0,0.,12.0,0.,12.0
1981-08-27 13:18:49.490 ,3,0,0.,12.0,0.,12.0,0.,12.0,0.,12.0
1981-08-27 13:19:01.490 ,3,0,0.,12.0,0.,12.0,0.,12.0,0.,12.0